TimeCDT,TemperatureF,Dew PointF,Humidity,Sea Level PressureIn,VisibilityMPH,Wind Direction,Wind SpeedMPH,Gust SpeedMPH,PrecipitationIn,Events,Conditions,WindDirDegrees,DateUTC
12:53 AM,57.0,30.9,37,29.94,10.0,SE,11.5,-,N/A,,Clear,130,2013-05-13 05:53:00
1:53 AM,55.9,32.0,40,29.93,10.0,ESE,9.2,-,N/A,,Clear,110,2013-05-13 06:53:00
2:53 AM,53.1,33.1,47,29.88,10.0,SE,11.5,-,N/A,,Clear,140,2013-05-13 07:53:00
3:53 AM,52.0,35.1,53,29.86,10.0,SE,9.2,-,N/A,,Partly Cloudy,130,2013-05-13 08:53:00
4:53 AM,51.1,36.0,56,29.85,10.0,ESE,8.1,-,N/A,,Clear,120,2013-05-13 09:53:00
5:53 AM,52.0,37.0,57,29.82,10.0,SE,9.2,-,N/A,,Clear,140,2013-05-13 10:53:00
6:53 AM,50.0,37.9,63,29.81,10.0,SE,4.6,-,N/A,,Clear,130,2013-05-13 11:53:00
7:53 AM,54.0,42.1,64,29.81,10.0,SE,3.5,-,N/A,,Clear,130,2013-05-13 12:53:00
8:53 AM,59.0,43.0,55,29.82,10.0,Calm,Calm,-,N/A,,Clear,0,2013-05-13 13:53:00
9:53 AM,68.0,44.1,42,29.81,10.0,WSW,6.9,-,N/A,,Clear,250,2013-05-13 14:53:00
10:53 AM,77.0,44.1,31,29.80,10.0,WNW,12.7,-,N/A,,Clear,300,2013-05-13 15:53:00
11:53 AM,82.9,45.0,26,29.80,10.0,NW,12.7,19.6,N/A,,Clear,310,2013-05-13 16:53:00
12:53 PM,88.0,46.0,23,29.79,10.0,NW,17.3,24.2,N/A,,Clear,310,2013-05-13 17:53:00
1:53 PM,87.1,45.0,23,29.78,10.0,NW,16.1,24.2,N/A,,Clear,310,2013-05-13 18:53:00
3:53 PM,91.9,43.0,18,29.76,10.0,NNW,18.4,26.5,N/A,,Clear,330,2013-05-13 20:53:00
4:53 PM,91.9,43.0,18,29.75,10.0,NW,13.8,23.0,N/A,,Clear,320,2013-05-13 21:53:00
5:53 PM,91.9,42.1,18,29.74,10.0,NW,12.7,27.6,N/A,,Clear,320,2013-05-13 22:53:00
7:53 PM,82.9,46.9,28,29.73,10.0,NW,5.8,-,N/A,,Clear,320,2013-05-14 00:53:00
8:53 PM,77.0,46.9,34,29.73,10.0,WNW,3.5,-,N/A,,Clear,290,2013-05-14 01:53:00
9:53 PM,75.0,43.0,32,29.73,10.0,SSW,3.5,-,N/A,,Clear,200,2013-05-14 02:53:00
10:53 PM,71.1,44.1,38,29.71,10.0,South,3.5,-,N/A,,Clear,170,2013-05-14 03:53:00
11:53 PM,68.0,44.1,42,29.68,10.0,Calm,Calm,-,N/A,,Clear,0,2013-05-14 04:53:00